CSA689 LEBL-LKPR

Flight info

Callsign CSA689
Flight time N/A
Altitude 36000
Route AGENA DCT BODEQ DCT LUMAS DCT SECON DCT ADITA DCT STP DCT RAPED DCT PIGOS DCT EKSID DCT NOSTA DCT NOPMU DCT DEVOX DCT NESTI DCT TAGIP DCT BRENO DCT TULSI DCT MEBEK DCT NENUM Z39 DOLUP DCT APRAQ
Aircraft A339/H-SDE2E3FGHIJ1RWXY/LB1

Departure

Time 2026-05-07 19:03
Airport Josep Tarradellas Barcelona-El Prat Airport (LEBL)

Arrival

Time N/A
Airport Václav Havel Airport Prague (LKPR)
Time Latitude Longitude Altitude Speed Heading
2026-05-07 18:25 41.29110 2.08271 22 ft 0 kts 331°
2026-05-07 18:47 41.29099 2.08279 22 ft 2 kts 336°
2026-05-07 18:47 41.29085 2.08285 22 ft 2 kts 351°
2026-05-07 18:47 41.29070 2.08287 22 ft 2 kts
2026-05-07 18:48 41.29055 2.08284 22 ft 2 kts 14°
2026-05-07 18:48 41.29041 2.08278 22 ft 2 kts 26°
2026-05-07 18:48 41.29028 2.08267 22 ft 2 kts 38°
2026-05-07 18:48 41.29017 2.08254 22 ft 2 kts 50°
2026-05-07 18:49 41.29009 2.08237 22 ft 1 kts 62°
2026-05-07 18:49 41.29006 2.08231 22 ft 0 kts 66°
2026-05-07 18:55 41.29007 2.08231 22 ft 0 kts 66°
2026-05-07 18:56 41.29011 2.08245 22 ft 2 kts 66°
2026-05-07 18:56 41.29022 2.08277 22 ft 4 kts 66°
2026-05-07 18:56 41.29022 2.08321 22 ft 5 kts 114°
2026-05-07 18:56 41.28989 2.08357 22 ft 6 kts 152°
2026-05-07 18:57 41.28952 2.08346 22 ft 6 kts 202°
2026-05-07 18:57 41.28901 2.08319 22 ft 9 kts 202°
2026-05-07 18:57 41.28838 2.08288 22 ft 10 kts 199°
2026-05-07 18:57 41.28764 2.08254 22 ft 11 kts 199°
2026-05-07 18:58 41.28692 2.08198 22 ft 12 kts 228°
2026-05-07 18:58 41.28647 2.08098 22 ft 12 kts 243°
2026-05-07 18:58 41.28606 2.07988 22 ft 14 kts 245°
2026-05-07 18:58 41.28564 2.07868 23 ft 13 kts 245°
2026-05-07 18:59 41.28525 2.07755 25 ft 13 kts 245°
2026-05-07 18:59 41.28486 2.07639 25 ft 14 kts 245°
2026-05-07 18:59 41.28445 2.07522 26 ft 14 kts 245°
2026-05-07 18:59 41.28405 2.07408 27 ft 11 kts 240°
2026-05-07 19:00 41.28349 2.07357 28 ft 7 kts 182°
2026-05-07 19:00 41.28318 2.07385 28 ft 4 kts 139°
2026-05-07 19:00 41.28291 2.07416 29 ft 5 kts 139°
2026-05-07 19:00 41.28262 2.07456 29 ft 5 kts 121°
2026-05-07 19:01 41.28262 2.07503 29 ft 6 kts 77°
2026-05-07 19:01 41.28268 2.07532 29 ft 0 kts 69°
2026-05-07 19:02 41.28295 2.07612 28 ft 27 kts 66°
2026-05-07 19:02 41.28500 2.08195 25 ft 108 kts 67°
2026-05-07 19:02 41.28890 2.09368 124 ft 162 kts 66°
2026-05-07 19:03 41.29346 2.10746 856 ft 164 kts 74°
2026-05-07 19:03 41.29478 2.12222 1672 ft 165 kts 94°
2026-05-07 19:03 41.29328 2.13687 2343 ft 163 kts 100°
2026-05-07 19:03 41.29120 2.15224 2754 ft 177 kts 99°
2026-05-07 19:04 41.28924 2.16895 3133 ft 193 kts 98°
2026-05-07 19:04 41.28729 2.18724 3583 ft 207 kts 97°
2026-05-07 19:04 41.28534 2.20648 4203 ft 213 kts 97°
2026-05-07 19:04 41.28345 2.22568 4900 ft 214 kts 96°
2026-05-07 19:05 41.28155 2.24524 5579 ft 216 kts 96°
2026-05-07 19:05 41.27963 2.26507 6242 ft 218 kts 96°
2026-05-07 19:05 41.27770 2.28511 6881 ft 221 kts 96°
2026-05-07 19:05 41.27576 2.30534 7512 ft 224 kts 96°
2026-05-07 19:06 41.27368 2.32604 7998 ft 233 kts 97°
2026-05-07 19:06 41.26882 2.37186 8652 ft 269 kts 97°
2026-05-07 19:06 41.26618 2.39671 9131 ft 281 kts 97°
2026-05-07 19:07 41.26343 2.42247 9850 ft 284 kts 97°
2026-05-07 19:07 41.26065 2.44862 10497 ft 291 kts 97°
2026-05-07 19:07 41.25776 2.47581 10844 ft 308 kts 97°
2026-05-07 19:07 41.25467 2.50470 11158 ft 326 kts 97°
2026-05-07 19:08 41.25160 2.53539 11478 ft 342 kts 93°
2026-05-07 19:08 41.25391 2.56670 11990 ft 351 kts 73°
2026-05-07 19:08 41.26409 2.59619 12691 ft 354 kts 56°
2026-05-07 19:08 41.27839 2.62307 13376 ft 358 kts 53°
2026-05-07 19:09 41.29295 2.64987 14012 ft 364 kts 53°
2026-05-07 19:09 41.31012 2.67495 14647 ft 369 kts 40°
2026-05-07 19:09 41.33157 2.69360 15309 ft 373 kts 25°
2026-05-07 19:09 41.35551 2.70630 15784 ft 376 kts 19°
2026-05-07 19:10 41.38032 2.71791 16042 ft 378 kts 19°
2026-05-07 19:10 41.40550 2.72964 16526 ft 385 kts 19°
2026-05-07 19:10 41.43068 2.74159 17258 ft 387 kts 19°
2026-05-07 19:10 41.45585 2.75373 17924 ft 390 kts 20°
2026-05-07 19:11 41.47988 2.77102 18485 ft 397 kts 39°
2026-05-07 19:11 41.49786 2.79895 19090 ft 402 kts 60°
2026-05-07 19:11 41.50210 2.80986 19282 ft 403 kts 67°